Location: Klein M�hlingen
(51.9472°N, 11.7453°E)
Time: 20:03:31
(UTC+00:00)

Envisat - Pass Details

Date: 02 October 2021
Orbit: 764 x 766 km, 98.2° (Epoch: 20 October)

Event Time Altitude Azimuth Distance (km) Brightness Sun altitude
Rises 04:34:01 0° 14° (NNE) 3,245 6.5 -7.2°
Reaches altitude 10° 04:36:20 10° 16° (NNE) 2,314 5.7 -6.9°
Maximum altitude 04:41:27 84° 105° (ESE) 776 3.1 -6.1°
Drops below altitude 10° 04:46:32 10° 194° (SSW) 2,297 5.3 -5.3°
Sets 04:48:50 0° 195° (SSW) 3,218 6.1 -5.0°
